Home > Time Zones > World Clock > Weather > India > Unnao > Past weeks

Flag for India Weather past 2 weeks in Unnao, Uttar Pradesh, India

Now
84 °F

Partly cloudy.


Feels Like: 94 °F
Forecast: 80 / 105 °F
Wind: 2 mph from North

Location: Lucknow / Amausi

Current Time: Aug 21, 2014 at 3:07:55 AM

Latest Report: Aug 21, 2014 at 2:00 AM


Visibility: 2 mi

Pressure: 29.56 "Hg

Humidity: 79%

Dew point: 77 °F

Location of UnnaoLocation

Historic Weather in Unnao — Graph

°F

Unnao temperature yesterday

Maximum temperature yesterday: 100 °F (at 1:00 PM)
Minimum temperature yesterday: 81 °F (at 5:30 AM)
Average temperature yesterday: 91 °F

Past Weeks' High & Low Weather Summary

 TemperatureHumidityPressure
High100 °F (Aug 19, 1:30 PM)100% (Aug 11, 5:30 AM)29.77 "Hg (Aug 11, 5:30 AM)
Low79 °F (Aug 7, 5:30 AM)47% (Aug 19, 12:00 PM)29.39 "Hg (Aug 6, 1:00 AM)
Average88 °F78%29.56 "Hg
* Reported Aug 6 1:00 AM — Aug 21 1:00 AM, Unnao, Weather by CustomWeather, © 2014

Note: Actual official high and low records may vary slightly from our data, if they occured in-between our weather recording intervals... More about our weather records

Advertising

Unnao weather history for previous 24 hours

 ConditionsComfort  
Time TempWeatherWind HumidityBarometerVisibility
1:00 AM
Aug 21
84 °FPartly cloudy.2 mph79%29.59 "Hg2 mi
12:00 AM86 °FPartly cloudy.2 mph75%29.59 "Hg2 mi
11:00 PM
Aug 20
86 °FPartly cloudy.2 mph75%29.62 "Hg2 mi
10:00 PM86 °FPartly cloudy.2 mph75%29.62 "Hg2 mi
8:30 PM86 °FPartly cloudy.2 mph79%29.59 "Hg2 mi
8:00 PM88 °FPartly cloudy.No wind79%29.62 "Hg2 mi
7:00 PM90 °FBroken clouds.No wind71%29.59 "Hg2 mi
6:30 PM91 °FPartly sunny.2 mph67%29.56 "Hg2 mi
6:00 PM93 °FScattered clouds.5 mph63%29.56 "Hg2 mi
5:30 PM97 °FScattered clouds.7 mph60%29.56 "Hg2 mi
5:00 PM99 °FHaze.7 mph57%29.56 "Hg2 mi
4:30 PM99 °FHaze.8 mph57%29.56 "Hg2 mi
4:00 PM100 °FScattered clouds.8 mph53%29.56 "Hg2 mi
3:30 PM100 °FScattered clouds.8 mph53%29.59 "Hg2 mi
3:00 PM100 °FScattered clouds.12 mph53%29.59 "Hg2 mi
2:30 PM100 °FScattered clouds.8 mph57%29.62 "Hg2 mi
2:00 PM100 °FScattered clouds.9 mph57%29.62 "Hg2 mi
1:00 PM100 °FScattered clouds.6 mph57%29.65 "Hg2 mi
11:30 AM99 °FBroken clouds.6 mph60%29.68 "Hg2 mi
11:00 AM99 °FPartly sunny.6 mph60%29.68 "Hg2 mi
10:30 AM97 °FPartly sunny.3 mph67%29.68 "Hg2 mi
10:00 AM93 °FPartly sunny.3 mph75%29.68 "Hg2 mi
9:30 AM91 °FBroken clouds.5 mph75%29.68 "Hg2 mi
9:00 AM90 °FBroken clouds.5 mph79%29.68 "Hg2 mi
8:30 AM88 °FBroken clouds.No wind84%29.68 "Hg2 mi
8:00 AM86 °FBroken clouds.No wind84%29.68 "Hg2 mi
7:30 AM84 °FBroken clouds.No wind89%29.68 "Hg2 mi
7:00 AM82 °FBroken clouds.No wind89%29.68 "Hg2 mi
6:30 AM81 °FBroken clouds.No wind94%29.65 "Hg2 mi
6:00 AM81 °FPartly cloudy.No wind94%29.65 "Hg2 mi
5:30 AM81 °FPartly cloudy.No wind94%29.65 "Hg2 mi
Weather by CustomWeather, © 2014

See weather overviewHow to use our weather pages